Location: La Pernelle
(49.6188°N, 1.2999°W)
Time: 17:59:00
(UTC+00:00)

SL-16 R/B - Pass Details

Date: 25 October 2021
Orbit: 842 x 846 km, 71.0° (Epoch: 28 November)

Event Time Altitude Azimuth Distance (km) Brightness Sun altitude
Rises 17:37:31 0° 187° (S) 3,388 5.6 -7.5°
Reaches altitude 10° 17:40:01 10° 182° (S) 2,458 4.8 -7.9°
Maximum altitude 17:45:23 47° 110° (ESE) 1,109 2.5 -8.8°
Drops below altitude 10° 17:50:48 10° 38° (NE) 2,476 4.2 -9.6°
Sets 17:53:20 0° 33° (NNE) 3,416 5.0 -10.0°
